W7TTE Weather Reports


Display with metric or nautical units.
time (UTC)temp
F
wind
direction
speed
MPH
gust
MPH
rain 1hr
in
rain 24hr
in
rain mn
in
humidity
%
barometer
mb
20260502170448 89 115 5.0 7.0 0.00 0.00 0.00 24 1015.9
20260502163931 86 216 0.0 1.0 0.00 0.00 0.00 25 1016.0
20260502163427 87 163 3.0 3.0 0.00 0.00 0.00 26 1016.2
20260502162925 87 198 1.0 2.0 0.00 0.00 0.00 25 1015.9
20260502162422 85 216 1.0 3.0 0.00 0.00 0.00 26 1016.0
20260502161919 86 345 2.0 3.0 0.00 0.00 0.00 26 1015.9
20260502161415 85 154 0.0 1.0 0.00 0.00 0.00 26 1015.9
20260502160913 85 215 1.0 3.0 0.00 0.00 0.00 27 1016.0
20260502160411 84 287 1.0 2.0 0.00 0.00 0.00 27 1016.0
20260502151849 81 245 0.0 1.0 0.00 0.00 0.00 23 1015.8
20260502151345 80 224 0.0 0.0 0.00 0.00 0.00 24 1015.6
20260502150843 79 198 0.0 0.0 0.00 0.00 0.00 24 1015.7
20260502150339 77 180 0.0 1.0 0.00 0.00 0.00 24 1015.6
20260502130727 64 214 0.0 0.0 0.00 0.00 0.00 35 1014.3
20260502130225 64 287 0.0 0.0 0.00 0.00 0.00 36 1014.4
20260502123711 64 221 0.0 0.0 0.00 0.00 0.00 32 1014.1
20260502123208 64 211 0.0 2.0 0.00 0.00 0.00 33 1014.1
20260502122704 65 196 0.0 0.0 0.00 0.00 0.00 34 1013.9
20260502122201 65 192 0.0 0.0 0.00 0.00 0.00 31 1013.7
20260502121659 65 208 0.0 2.0 0.00 0.00 0.00 31 1013.7
20260502121156 65 183 0.0 0.0 0.00 0.00 0.00 32 1013.7
20260502120653 65 170 0.0 0.0 0.00 0.00 0.00 31 1013.8
20260502120150 66 199 0.0 0.0 0.00 0.00 0.00 34 1013.7
20260502115647 66 115 1.0 1.0 0.00 0.00 0.00 33 1013.4
20260502115143 66 311 1.0 1.0 0.00 0.00 0.00 33 1013.5
20260502114639 66 59 1.0 2.0 0.00 0.00 0.00 28 1013.5
20260502114137 66 224 0.0 0.0 0.00 0.00 0.00 30 1013.4
20260502113634 66 16 0.0 1.0 0.00 0.00 0.00 29 1013.5
20260502113132 66 200 0.0 0.0 0.00 0.00 0.00 28 1013.5
20260502112630 67 202 0.0 0.0 0.00 0.00 0.00 27 1013.5
20260502112127 68 192 0.0 1.0 0.00 0.00 0.00 28 1013.4
20260502111625 68 195 0.0 0.0 0.00 0.00 0.00 26 1013.4
20260502111122 69 215 0.0 1.0 0.00 0.00 0.00 26 1013.3
20260502110620 70 201 0.0 0.0 0.00 0.00 0.00 26 1013.5
20260502110117 71 190 1.0 1.0 0.00 0.00 0.00 26 1013.4
20260502105614 71 200 2.0 2.0 0.00 0.00 0.00 27 1013.4
20260502105111 73 179 1.0 1.0 0.00 0.00 0.00 28 1013.3
20260502104608 74 217 0.0 4.0 0.00 0.00 0.00 27 1013.1
20260502104106 75 18 1.0 2.0 0.00 0.00 0.00 25 1012.9
20260502103603 75 341 2.0 4.0 0.00 0.00 0.00 25 1013.1
20260502103101 73 39 3.0 4.0 0.00 0.00 0.00 26 1013.0
20260502102557 74 221 0.0 4.0 0.00 0.00 0.00 27 1013.1
20260502102054 74 10 3.0 6.0 0.00 0.00 0.00 27 1012.9
20260502101552 73 7 3.0 7.0 0.00 0.00 0.00 27 1012.8
20260502101050 73 24 2.0 7.0 0.00 0.00 0.00 27 1012.8
20260502100549 73 299 2.0 6.0 0.00 0.00 0.00 27 1012.9
20260502091523 67 339 1.0 2.0 0.00 0.00 0.00 29 1012.7
20260502091021 65 224 0.0 0.0 0.00 0.00 0.00 31 1012.7
20260502090517 66 207 0.0 0.0 0.00 0.00 0.00 30 1012.7
20260502071412 75 237 0.0 1.0 0.00 0.00 0.00 23 1012.7
20260502070910 75 182 0.0 2.0 0.00 0.00 0.00 22 1012.4
20260502070407 75 154 1.0 2.0 0.00 0.00 0.00 23 1012.5
20260502065906 75 197 1.0 1.0 0.00 0.00 0.00 23 1012.6
20260502065404 74 158 1.0 2.0 0.00 0.00 0.00 23 1012.6
20260502064902 74 167 0.0 1.0 0.00 0.00 0.00 23 1012.3
20260502064359 74 178 0.0 1.0 0.00 0.00 0.00 23 1012.5
20260502063856 74 188 0.0 0.0 0.00 0.00 0.00 23 1012.6
20260502063354 75 202 0.0 1.0 0.00 0.00 0.00 24 1012.3
20260502062851 75 165 0.0 0.0 0.00 0.00 0.00 24 1012.5
20260502062349 75 184 0.0 0.0 0.00 0.00 0.00 23 1012.5
20260502061848 75 218 0.0 0.0 0.00 0.00 0.00 23 1012.4
20260502061345 75 187 0.0 1.0 0.00 0.00 0.00 23 1012.4
20260502060841 75 169 1.0 2.0 0.00 0.00 0.00 23 1012.5
20260502060336 74 166 1.0 1.0 0.00 0.00 0.00 23 1012.3
20260502055834 74 172 0.0 0.0 0.00 0.00 0.00 23 1012.4
20260502055331 75 206 0.0 0.0 0.00 0.00 0.00 23 1012.3
20260502054831 75 156 0.0 0.0 0.00 0.00 0.00 23 1012.3
20260502054328 76 199 0.0 0.0 0.00 0.00 0.00 22 1012.3
20260502053825 77 188 0.0 0.0 0.00 0.00 0.00 22 1012.3
20260502053322 77 199 0.0 1.0 0.00 0.00 0.00 21 1012.4
20260502052820 77 168 1.0 2.0 0.00 0.00 0.00 21 1012.2
20260502052318 77 194 0.0 2.0 0.00 0.00 0.00 21 1012.3
20260502051815 77 201 0.0 1.0 0.00 0.00 0.00 21 1012.3
20260502051314 76 197 1.0 2.0 0.00 0.00 0.00 21 1012.4
20260502050810 76 199 0.0 0.0 0.00 0.00 0.00 21 1012.1
20260502050306 76 190 0.0 0.0 0.00 0.00 0.00 21 1012.3
20260502045803 77 142 0.0 1.0 0.00 0.00 0.00 21 1012.3
20260502045300 77 164 1.0 2.0 0.00 0.00 0.00 20 1012.1
20260502044757 78 182 0.0 3.0 0.00 0.00 0.00 20 1012.0
20260502044253 78 153 1.0 2.0 0.00 0.00 0.00 20 1011.9
20260502043750 78 193 1.0 2.0 0.00 0.00 0.00 20 1011.9
20260502043248 78 160 2.0 2.0 0.00 0.00 0.00 20 1011.9
20260502042747 79 111 2.0 2.0 0.00 0.00 0.00 20 1011.9
20260502042245 79 175 1.0 2.0 0.00 0.00 0.00 20 1011.7
20260502041743 79 173 1.0 1.0 0.00 0.00 0.00 20 1011.8
20260502041240 79 196 1.0 2.0 0.00 0.00 0.00 20 1011.7
20260502040736 79 176 1.0 2.0 0.00 0.00 0.00 20 1011.6
20260502040233 79 177 0.0 1.0 0.00 0.00 0.00 21 1011.6
20260502035729 79 183 1.0 2.0 0.00 0.00 0.00 21 1011.5
20260502035226 79 159 1.0 2.0 0.00 0.00 0.00 21 1011.5
20260502034723 79 148 0.0 1.0 0.00 0.00 0.00 21 1011.4
20260502034222 79 148 1.0 2.0 0.00 0.00 0.00 21 1011.2
20260502033720 80 143 1.0 1.0 0.00 0.00 0.00 21 1011.4
20260502033217 80 171 1.0 1.0 0.00 0.00 0.00 20 1011.2
20260502032713 81 163 1.0 2.0 0.00 0.00 0.00 21 1011.1
20260502032209 80 151 0.0 2.0 0.00 0.00 0.00 21 1011.2
20260502031708 80 150 0.0 0.0 0.00 0.00 0.00 21 1011.2
20260502031205 81 123 1.0 1.0 0.00 0.00 0.00 21 1011.0
20260502030704 82 165 1.0 1.0 0.00 0.00 0.00 21 1010.8
20260502030201 82 192 0.0 0.0 0.00 0.00 0.00 21 1010.9
20260502025658 82 201 0.0 1.0 0.00 0.00 0.00 20 1010.8
20260502025156 82 175 1.0 2.0 0.00 0.00 0.00 20 1010.8
20260502024654 83 197 0.0 2.0 0.00 0.00 0.00 20 1010.6
20260502024152 83 188 1.0 1.0 0.00 0.00 0.00 19 1010.7
20260502023650 83 168 0.0 1.0 0.00 0.00 0.00 19 1010.6
20260502023147 84 174 0.0 1.0 0.00 0.00 0.00 19 1010.5
20260502022643 84 176 0.0 1.0 0.00 0.00 0.00 18 1010.6
20260502022140 85 163 1.0 1.0 0.00 0.00 0.00 18 1010.6
20260502021638 86 187 0.0 2.0 0.00 0.00 0.00 17 1010.5
20260502021135 87 190 0.0 2.0 0.00 0.00 0.00 16 1010.4
20260502020632 87 172 1.0 3.0 0.00 0.00 0.00 16 1010.4
20260502020129 87 220 1.0 2.0 0.00 0.00 0.00 16 1010.5
20260502015627 87 216 0.0 1.0 0.00 0.00 0.00 16 1010.5
20260502015123 88 204 1.0 3.0 0.00 0.00 0.00 16 1010.4
20260502014620 88 190 2.0 3.0 0.00 0.00 0.00 16 1010.4
20260502014117 88 245 1.0 2.0 0.00 0.00 0.00 16 1010.4
20260502013613 89 245 1.0 2.0 0.00 0.00 0.00 17 1010.2
20260502013109 90 279 0.0 3.0 0.00 0.00 0.00 17 1010.4
20260502012607 90 203 0.0 2.0 0.00 0.00 0.00 17 1010.1
20260502012105 91 225 2.0 3.0 0.00 0.00 0.00 16 1010.4
20260502011601 90 218 2.0 2.0 0.00 0.00 0.00 17 1010.3
20260502011057 90 182 1.0 3.0 0.00 0.00 0.00 17 1010.4
20260502010554 91 198 1.0 2.0 0.00 0.00 0.00 17 1010.5
20260502010051 91 185 2.0 3.0 0.00 0.00 0.00 17 1010.4
20260502005548 91 239 1.0 3.0 0.00 0.00 0.00 17 1010.2
20260502005046 91 241 2.0 4.0 0.00 0.00 0.00 17 1010.4
20260502004542 91 206 1.0 2.0 0.00 0.00 0.00 18 1010.3
20260502004039 91 223 2.0 6.0 0.00 0.00 0.00 17 1010.4
20260502003537 91 257 1.0 2.0 0.00 0.00 0.00 17 1010.5
20260502003033 91 281 3.0 6.0 0.00 0.00 0.00 17 1010.5
20260502002530 91 179 3.0 3.0 0.00 0.00 0.00 18 1010.4
20260502002027 91 243 1.0 4.0 0.00 0.00 0.00 18 1010.6
20260502001525 91 206 3.0 6.0 0.00 0.00 0.00 18 1010.5
20260502001022 91 191 4.0 4.0 0.00 0.00 0.00 18 1010.8
20260502000520 91 194 1.0 6.0 0.00 0.00 0.00 18 1010.4
20260502000017 92 352 1.0 2.0 0.00 0.00 0.00 17 1010.6
20260501235513 92 175 2.0 3.0 0.00 0.00 0.00 17 1010.5
20260501235008 92 252 1.0 2.0 0.00 0.00 0.00 18 1010.5
20260501234504 91 193 2.0 4.0 0.00 0.00 0.00 18 1010.5
20260501234003 90 250 1.0 2.0 0.00 0.00 0.00 18 1010.9
20260501233500 91 220 1.0 4.0 0.00 0.00 0.00 18 1010.7
20260501232956 91 264 1.0 3.0 0.00 0.00 0.00 17 1010.6
20260501232453 91 12 2.0 4.0 0.00 0.00 0.00 17 1010.5
20260501231950 90 278 2.0 3.0 0.00 0.00 0.00 18 1010.7
20260501231448 91 67 4.0 7.0 0.00 0.00 0.00 18 1010.9
20260501230946 91 307 3.0 8.0 0.00 0.00 0.00 19 1010.8
20260501230445 92 265 5.0 7.0 0.00 0.00 0.00 18 1010.7
20260501225943 92 255 4.0 6.0 0.00 0.00 0.00 19 1010.9
20260501225440 91 301 1.0 2.0 0.00 0.00 0.00 20 1011.0
20260501224935 90 340 3.0 3.0 0.00 0.00 0.00 21 1011.0
20260501224433 91 271 2.0 3.0 0.00 0.00 0.00 22 1011.0
20260501223930 91 256 2.0 6.0 0.00 0.00 0.00 22 1011.2
20260501223426 91 217 1.0 4.0 0.00 0.00 0.00 22 1010.9
20260501222922 92 203 0.0 3.0 0.00 0.00 0.00 21 1011.1
20260501222419 91 2 2.0 6.0 0.00 0.00 0.00 22 1011.4
20260501221915 90 346 4.0 6.0 0.00 0.00 0.00 22 1011.3
20260501221413 89 254 2.0 4.0 0.00 0.00 0.00 23 1011.4
20260501220911 91 276 4.0 10.0 0.00 0.00 0.00 23 1011.4
20260501220408 90 310 3.0 8.0 0.00 0.00 0.00 24 1011.5
20260501215904 90 266 2.0 7.0 0.00 0.00 0.00 23 1011.6
20260501215401 90 233 4.0 4.0 0.00 0.00 0.00 22 1011.7
20260501214856 89 178 2.0 4.0 0.00 0.00 0.00 23 1011.9
20260501214351 89 252 3.0 3.0 0.00 0.00 0.00 23 1011.8
20260501213847 89 193 1.0 3.0 0.00 0.00 0.00 24 1011.8
20260501213344 87 276 0.0 3.0 0.00 0.00 0.00 23 1012.1
20260501212840 88 253 2.0 4.0 0.00 0.00 0.00 23 1012.1
20260501212337 88 219 3.0 7.0 0.00 0.00 0.00 23 1012.2
20260501211834 89 185 2.0 6.0 0.00 0.00 0.00 22 1012.4
20260501211331 88 243 1.0 3.0 0.00 0.00 0.00 22 1012.3
20260501210828 87 230 1.0 3.0 0.00 0.00 0.00 23 1012.5
20260501210326 87 179 0.0 2.0 0.00 0.00 0.00 23 1012.4
20260501205822 87 225 3.0 6.0 0.00 0.00 0.00 23 1012.9
20260501205319 87 260 1.0 2.0 0.00 0.00 0.00 24 1012.6
20260501204815 87 196 0.0 3.0 0.00 0.00 0.00 24 1012.6
20260501204312 88 156 3.0 4.0 0.00 0.00 0.00 24 1012.8
20260501203808 88 206 2.0 7.0 0.00 0.00 0.00 25 1012.7
20260501203306 89 282 1.0 3.0 0.00 0.00 0.00 24 1012.7
20260501202802 87 270 4.0 4.0 0.00 0.00 0.00 25 1012.9
20260501202259 87 294 2.0 4.0 0.00 0.00 0.00 26 1013.0
20260501201756 86 210 4.0 7.0 0.00 0.00 0.00 25 1012.8
20260501201253 87 185 2.0 4.0 0.00 0.00 0.00 26 1012.9
20260501200750 86 161 1.0 3.0 0.00 0.00 0.00 26 1012.9
20260501200247 87 177 3.0 4.0 0.00 0.00 0.00 25 1012.9
20260501195744 86 197 3.0 4.0 0.00 0.00 0.00 26 1013.0
20260501195240 86 203 1.0 3.0 0.00 0.00 0.00 25 1013.1
20260501194736 86 136 2.0 3.0 0.00 0.00 0.00 26 1013.1
20260501194233 85 270 3.0 3.0 0.00 0.00 0.00 26 1013.3
20260501193729 85 241 0.0 2.0 0.00 0.00 0.00 26 1013.4
20260501193228 86 211 4.0 9.0 0.00 0.00 0.00 27 1013.6
20260501192725 85 190 4.0 6.0 0.00 0.00 0.00 27 1013.5
20260501192222 84 249 2.0 2.0 0.00 0.00 0.00 28 1013.6
20260501191719 84 325 2.0 3.0 0.00 0.00 0.00 28 1013.8
20260501191216 84 238 1.0 3.0 0.00 0.00 0.00 28 1013.7
20260501190712 85 171 2.0 2.0 0.00 0.00 0.00 28 1013.9
20260501190208 84 345 2.0 2.0 0.00 0.00 0.00 28 1013.8
20260501185704 85 128 4.0 6.0 0.00 0.00 0.00 28 1014.0
20260501185200 83 132 2.0 4.0 0.00 0.00 0.00 28 1014.0
20260501184656 83 186 4.0 4.0 0.00 0.00 0.00 30 1014.1
20260501184156 83 208 2.0 4.0 0.00 0.00 0.00 28 1014.3
20260501183653 83 208 3.0 4.0 0.00 0.00 0.00 30 1014.2
20260501183150 82 220 1.0 2.0 0.00 0.00 0.00 30 1014.3
20260501182646 82 158 2.0 4.0 0.00 0.00 0.00 30 1014.4
20260501182143 81 204 1.0 4.0 0.00 0.00 0.00 31 1014.6
20260501181640 82 186 2.0 2.0 0.00 0.00 0.00 30 1014.7
20260501181137 81 197 2.0 3.0 0.00 0.00 0.00 31 1014.7
20260501180636 81 179 3.0 7.0 0.00 0.00 0.00 30 1014.7
20260501180131 82 178 0.0 3.0 0.00 0.00 0.00 30 1014.7
20260501175628 82 145 2.0 3.0 0.00 0.00 0.00 30 1014.8
20260501175125 81 244 0.0 1.0 0.00 0.00 0.00 31 1014.9
20260501174622 80 224 1.0 3.0 0.00 0.00 0.00 31 1014.9
20260501174120 80 189 2.0 3.0 0.00 0.00 0.00 32 1015.0
20260501173617 80 219 3.0 6.0 0.00 0.00 0.00 32 1015.0
20260501173113 79 205 0.0 4.0 0.00 0.00 0.00 33 1015.0
20260501172609 79 242 2.0 6.0 0.00 0.00 0.00 33 1015.0
20260501172104 80 199 2.0 3.0 0.00 0.00 0.00 34 1015.0